Weather History for Bentonville, AR

Change the Weather History Date:

Thursday, December 6, 2012

  Actual Average Record
Temperature  
Mean Temperature 50 °F -  
Max Temperature 64 °F 52 °F 74 °F (1989)
Min Temperature 37 °F 29 °F 7 °F (1972)
Degree Days  
Heating Degree Days 14    
Moisture  
Dew Point 40 °F    
Average Humidity 67    
Maximum Humidity 87    
Minimum Humidity 42    
Precipitation  
Precipitation 0.00 in - - ()
Sea Level Pressure  
Sea Level Pressure 29.93 in    
Wind  
Wind Speed 5 mph (SSE)    
Max Wind Speed 10 mph    
Max Gust Speed -    
Visibility 10 miles    
Events      
Averages and records for this station are not official NWS values.
T = Trace of Precipitation, MM = Missing Value Source: NWS Daily Summary

Daily Weather History Graph

Daily Weather History Graph

Search for Another Location

Airport:

Trip Planner

Search our weather history database for the weather conditions in past years. The results will help you decide how hot, cold, wet, or windy it might be!

Date:

Astronomy

Dec. 06, 2012 Rise Set
Actual Time 7:14 AM CST 5:01 PM CST
Civil Twilight 6:46 AM CST 5:30 PM CST
Nautical Twilight 6:14 AM CST 6:02 PM CST
Astronomical Twilight 5:42 AM CST 6:33 PM CST
Moon No Moon Rise 12:17 PM CST (12/6)
Length of Visible Light 10h 43m
Length of Day
9h 46m
Waning Gibbous, 49% of the Moon is Illuminated
Dec 6
Waning Gibbous
Dec 13
New
Dec 19
First Quarter
Dec 28
Full
Jan 4
Last Quarter

Hourly Weather History & Observations

Time (CST) Temp. Windchill Dew Point Humidity Pressure Visibility Wind Dir Wind Speed Gust Speed Precip Events Conditions
12:16 AM 44.6 °F 41.4 °F 30.2 °F 57% 30.06 in 10.0 mi SE 5.8 mph - N/A   Clear
12:35 AM 42.8 °F 39.3 °F 30.2 °F 61% 30.05 in 10.0 mi SE 5.8 mph - N/A   Clear
12:55 AM 42.8 °F 39.3 °F 30.2 °F 61% 30.04 in 10.0 mi SE 5.8 mph - N/A   Clear
1:35 AM 42.8 °F 39.3 °F 30.2 °F 61% 30.03 in 10.0 mi SE 5.8 mph - N/A   Clear
1:55 AM 42.8 °F 40.1 °F 30.2 °F 61% 30.02 in 10.0 mi SE 4.6 mph - N/A   Clear
2:15 AM 41.0 °F 37.1 °F 30.2 °F 65% 30.02 in 10.0 mi SE 5.8 mph - N/A   Clear
2:35 AM 42.8 °F 41.1 °F 32.0 °F 66% 30.01 in 10.0 mi SE 3.5 mph - N/A   Clear
2:55 AM 42.8 °F 39.3 °F 32.0 °F 66% 30.00 in 10.0 mi SE 5.8 mph - N/A   Clear
3:15 AM 42.8 °F 40.1 °F 32.0 °F 66% 29.99 in 10.0 mi ESE 4.6 mph - N/A   Clear
3:35 AM 42.8 °F - 32.0 °F 66% 29.99 in 10.0 mi Calm Calm - N/A   Clear
3:55 AM 42.8 °F 41.1 °F 32.0 °F 66% 29.99 in 10.0 mi SE 3.5 mph - N/A   Clear
4:15 AM 41.0 °F - 33.8 °F 76% 29.99 in 10.0 mi Calm Calm - N/A   Clear
4:35 AM 39.2 °F - 33.8 °F 81% 29.98 in 10.0 mi Calm Calm - N/A   Clear
5:15 AM 39.2 °F - 32.0 °F 75% 29.98 in 10.0 mi Calm Calm - N/A   Clear
5:35 AM 39.2 °F 37.0 °F 33.8 °F 81% 29.98 in 10.0 mi ESE 3.5 mph - N/A   Clear
5:55 AM 39.2 °F 37.0 °F 33.8 °F 81% 29.97 in 10.0 mi ESE 3.5 mph - N/A   Clear
6:35 AM 37.4 °F 32.8 °F 32.0 °F 81% 29.96 in 10.0 mi ESE 5.8 mph - N/A   Clear
6:55 AM 39.2 °F 35.9 °F 35.6 °F 87% 29.96 in 10.0 mi ESE 4.6 mph - N/A   Clear
7:15 AM 39.2 °F - 33.8 °F 81% 29.97 in 10.0 mi Calm Calm - N/A   Clear
7:36 AM 39.2 °F - 35.6 °F 87% 29.97 in 10.0 mi Calm Calm - N/A   Clear
7:55 AM 41.0 °F - 37.4 °F 87% 29.97 in 10.0 mi Calm Calm - N/A   Clear
8:15 AM 44.6 °F 43.1 °F 39.2 °F 81% 29.97 in 10.0 mi ESE 3.5 mph - N/A   Clear
8:35 AM 46.4 °F 43.5 °F 39.2 °F 76% 29.97 in 10.0 mi SE 5.8 mph - N/A   Clear
8:55 AM 46.4 °F 42.9 °F 41.0 °F 81% 29.97 in 10.0 mi SE 6.9 mph - N/A   Clear
9:15 AM 50.0 °F - 42.8 °F 76% 29.96 in 10.0 mi SE 9.2 mph - N/A   Clear
9:35 AM 51.8 °F - 42.8 °F 71% 29.96 in 10.0 mi SE 8.1 mph - N/A   Clear
9:55 AM 53.6 °F - 44.6 °F 72% 29.97 in 10.0 mi SSE 6.9 mph - N/A   Clear
10:15 AM 53.6 °F - 44.6 °F 72% 29.96 in 10.0 mi SE 8.1 mph - N/A   Clear
10:35 AM 55.4 °F - 44.6 °F 67% 29.96 in 10.0 mi SSE 9.2 mph - N/A   Clear
10:55 AM 55.4 °F - 44.6 °F 67% 29.95 in 10.0 mi SSE 9.2 mph - N/A   Clear
11:16 AM 57.2 °F - 44.6 °F 63% 29.94 in 10.0 mi SSE 8.1 mph - N/A   Clear
11:35 AM 59.0 °F - 44.6 °F 59% 29.93 in 10.0 mi South 6.9 mph - N/A   Clear
11:55 AM 59.0 °F - 44.6 °F 59% 29.93 in 10.0 mi South 5.8 mph - N/A   Clear
12:15 PM 60.8 °F - 44.6 °F 55% 29.92 in 10.0 mi SSE 5.8 mph - N/A   Clear
12:35 PM 60.8 °F - 44.6 °F 55% 29.91 in 10.0 mi South 4.6 mph - N/A   Clear
1:15 PM 62.6 °F - 44.6 °F 52% 29.89 in 10.0 mi SSE 5.8 mph - N/A   Clear
1:35 PM 64.4 °F - 42.8 °F 45% 29.87 in 10.0 mi South 5.8 mph - N/A   Clear
1:55 PM 64.4 °F - 42.8 °F 45% 29.86 in 10.0 mi South 9.2 mph - N/A   Clear
2:15 PM 64.4 °F - 44.6 °F 49% 29.85 in 10.0 mi South 10.4 mph - N/A   Clear
2:36 PM 64.4 °F - 42.8 °F 45% 29.85 in 10.0 mi SSE 9.2 mph - N/A   Clear
2:55 PM 64.4 °F - 41.0 °F 42% 29.85 in 10.0 mi South 9.2 mph - N/A   Clear
3:15 PM 64.4 °F - 42.8 °F 45% 29.84 in 10.0 mi South 5.8 mph - N/A   Clear
3:55 PM 64.4 °F - 42.8 °F 45% 29.84 in 10.0 mi SSE 8.1 mph - N/A   Clear
4:15 PM 62.6 °F - 41.0 °F 45% 29.84 in 10.0 mi South 5.8 mph - N/A   Clear
4:35 PM 60.8 °F - 41.0 °F 48% 29.84 in 10.0 mi South 4.6 mph - N/A   Clear
4:56 PM 59.0 °F - 39.2 °F 48% 29.84 in 10.0 mi South 6.9 mph - N/A   Clear
5:15 PM 57.2 °F - 39.2 °F 51% 29.84 in 10.0 mi South 4.6 mph - N/A   Clear
5:35 PM 55.4 °F - 39.2 °F 54% 29.84 in 10.0 mi SSE 4.6 mph - N/A   Clear
6:55 PM 53.6 °F - 44.6 °F 72% 29.85 in 10.0 mi SSE 4.6 mph - N/A   Clear
7:35 PM 51.8 °F - 44.6 °F 76% 29.86 in 10.0 mi SSE 4.6 mph - N/A   Clear
7:55 PM 53.6 °F - 44.6 °F 72% 29.87 in 10.0 mi South 3.5 mph - N/A   Clear
8:35 PM 50.0 °F - 44.6 °F 82% 29.88 in 10.0 mi West 4.6 mph - N/A   Clear
8:55 PM 48.2 °F - 44.6 °F 87% 29.88 in 10.0 mi Calm Calm - N/A   Scattered Clouds
9:55 PM 53.6 °F - 46.4 °F 77% 29.88 in 10.0 mi SSW 6.9 mph - N/A   Overcast
10:15 PM 53.6 °F - 46.4 °F 77% 29.88 in 10.0 mi South 6.9 mph - N/A   Overcast
10:35 PM 51.8 °F - 46.4 °F 82% 29.89 in 10.0 mi South 4.6 mph - N/A   Mostly Cloudy
10:56 PM 51.8 °F - 46.4 °F 82% 29.89 in 10.0 mi South 5.8 mph - N/A   Partly Cloudy
11:15 PM 51.8 °F - 44.6 °F 76% 29.89 in 10.0 mi SSW 5.8 mph - N/A   Partly Cloudy
11:35 PM 51.8 °F - 44.6 °F 76% 29.89 in 10.0 mi South 6.9 mph - N/A   Partly Cloudy